Location: Unspecified
(0.0000°N, 0.0000°E)
Time: 03:09:17
(UTC+00:00)

TIGRISAT - Pass Details

Date: 10 December 2019
Orbit: 604 x 690 km, 97.7° (Epoch: 24 January)

Event Time Altitude Azimuth Distance (km) Brightness Sun altitude
Exits shadow 20:02:40 11° 169° (S) 1,896 ? -29.6°
Drops below altitude 10° 20:02:55 10° 170° (S) 1,991 ? -29.7°
Sets 20:05:11 0° 178° (S) 2,887 ? -30.2°
